Lid_Strength_Index
2 1 -1 -1 -1 -1 -1 -1 -1 -1 -1 -1 -1 -1 -1 -1 -1 -1 -1 -1 -1 -1 -1 -2 -1 -1 -1 -1 -1 -1 -1 -1 -1 -1 -1 -1 -1 -1 -1 -1 -1 -1 -1
1 1 -1 -1 -1 -1 -1 -1 -1 -1 -1 -1 -1 -1 -1 -1 -1 -1 -1 -1 -1 -1 -1 -1 -1 -1 -1 -1 -1 -1 -1 -1 -1 -1 -2 -1 -2 -1 -1 -1 -1 -1 -1
0 -0 -0 -1 -1 -1 -1 -1 -1 -1 -1 -1 -1 -1 -2 -1 -1 -1 -1 -1 -1 -2 -2 -2 -2 -1 -1 -1 -1 -1 -1 -1 -1 -2 -2 -0 -0 -2 -1 -1 -1 -1 -1
-0 0 0 -1 -1 -1 -1 -1 -2 -2 -2 -1 -1 -1 -1 -1 -1 -2 -2 -1 -1 -1 -2 -2 -2 -2 -1 -1 -1 -1 -1 -1 -1 -1 -0 -0 -0 -2 -1 -1 -1 -1 -1
1 1 0 -1 -1 -1 -1 -1 -2 -2 -1 -1 -2 -1 -1 -1 -2 -2 -2 -1 -1 -1 -2 -1 -1 -1 -1 -1 -1 -2 -2 -2 -1 -0 -1 -0 0 -1 -1 -1 -1 -1 -2
2 0 -1 -1 -1 -1 -1 -2 -1 -1 -2 -2 -2 -2 -2 -2 -1 -0 -0 -0 0 -0 -0 -0 0 0 0 0 0 -0 0 0 1 3 1 -0 -0 -2 -2 -1 -1 -1 -1
2 1 0 -2 -2 -2 -2 -2 -2 -2 -2 -2 -1 -1 -0 0 0 1 1 1 1 1 1 1 1 1 1 1 1 2 2 2 4 5 5 4 2 -1 -2 -2 -1 -1 -1
3 2 1 -1 -2 -2 -2 -2 -2 -2 -1 -1 0 1 1 1 1 1 2 2 2 2 2 1 2 2 2 2 1 2 2 3 6 6 5 4 -0 -0 -2 -2 -2 -1 -1
4 4 3 2 0 -1 -1 -1 -1 -1 0 1 1 2 2 2 3 3 3 3 2 2 2 2 2 3 3 3 3 3 4 4 9 8 6 6 0 1 -1 -1 -1 -2 -1
6 5 5 5 4 4 3 0 0 0 1 2 2 3 3 4 5 4 4 3 3 3 3 3 4 4 5 4 4 4 5 5 9 8 8 6 2 0 -1 -1 -0 -0 -1
6 6 7 7 7 7 6 4 2 2 2 3 3 4 6 9 9 8 5 5 4 5 5 5 5 6 7 6 6 6 7 9 9 9 8 4 3 1 1 0 -0 -0 -0
8 8 7 7 8 8 6 6 7 7 8 8 9 8 10 11 10 8 6 6 6 7 6 6 7 8 9 11 11 9 10 10 10 10 9 5 4 3 2 1 1 0 -1
8 8 8 8 8 9 8 9 10 10 10 10 11 10 11 10 10 11 12 12 12 11 13 12 12 12 12 12 12 12 11 12 12 11 9 6 5 4 2 2 1 0 0
11 10 9 9 9 10 10 9 10 10 11 11 11 11 12 12 13 13 13 13 14 14 14 14 14 13 13 12 12 12 12 12 12 11 10 7 6 5 3 2 2 1 0
12 10 10 10 10 10 11 11 11 11 11 11 12 11 12 13 13 13 14 14 15 14 15 15 14 14 14 13 13 13 13 13 13 12 12 8 7 5 4 3 2 1 1
11 11 11 10 10 10 11 11 11 11 11 12 13 13 12 13 14 14 14 14 15 15 15 15 15 15 15 14 14 13 14 13 13 13 12 12 8 7 5 4 3 2 2
10 10 11 10 11 11 11 11 12 12 11 12 13 13 13 14 14 14 14 15 15 15 15 15 15 15 16 15 15 14 14 13 13 13 13 12 11 8 6 5 4 3 3
10 11 11 10 11 11 11 12 11 12 12 12 14 14 14 14 14 15 15 16 15 16 16 16 16 16 16 16 16 15 15 14 14 14 13 13 12 11 8 6 5 4 3
10 10 11 11 11 11 12 12 13 13 13 13 14 15 15 14 15 15 16 16 16 16 16 16 17 17 17 16 16 15 15 15 15 13 14 13 12 11 11 8 6 5 4
10 10 11 11 12 12 13 14 15 14 14 14 15 15 15 15 15 16 16 16 16 16 16 17 17 17 17 17 15 15 16 15 15 15 14 13 13 12 11 10 10 9 6
11 12 12 13 13 13 14 14 15 14 15 16 16 15 16 16 16 16 16 17 16 17 17 17 17 17 17 17 17 17 17 16 15 15 15 15 14 13 13 13 12 11 10
11 12 13 13 13 13 13 13 14 14 16 15 15 15 15 16 16 16 17 17 17 17 17 17 17 18 17 17 19 19 19 18 15 15 15 15 15 15 14 13 13 12 13
13 13 13 13 13 13 13 14 16 16 17 17 17 17 16 16 16 16 16 17 17 17 18 18 18 18 18 18 18 19 20 20 19 16 16 15 16 16 15 14 14 14 12
13 13 13 13 13 13 13 14 15 14 16 16 16 17 17 16 16 16 17 17 18 18 18 18 17 18 18 19 18 17 18 18 20 20 17 17 16 16 16 16 15 14 14
14 14 14 14 14 14 14 14 15 15 15 17 17 17 17 17 17 17 17 18 18 18 18 17 18 18 18 18 18 18 18 19 19 20 20 19 17 17 16 16 16 15 14
16 15 14 15 14 15 14 14 15 15 17 17 17 17 17 17 18 18 17 18 18 18 18 18 18 18 18 18 18 18 19 19 20 20 20 20 20 18 17 16 16 15 14